Tracking 33200 objects as of 17-Feb-2026
HD Live streaming from Space Station
objects crossing your sky now

SL-14 DEB

Track SL-14 DEB now!
10-day predictions


NORAD ID: 26003
Int'l Code: 1991-068N
Perigee: 1,292.5 km
Apogee: 1,488.7 km
Inclination: 82.7 °
Period: 113.4 minutes
Semi major axis: 7761 km
RCS: 0.0354 m2 (small)
Launch date: September 28, 1991
Source: Commonwealth of Independent States (former USSR) (CIS)
Launch site: PLESETSK MISSILE AND SPACE COMPLEX (PKMTR)

Note: This is SATELLITE DEBRIS
Your satellite tracking list
Your tracking list is empty




NASA's NSSDC Master Catalog

Two Line Element Set (TLE):
1 26003U 91068N   26047.52969498  .00001695  00000-0  82670-2 0  9992
2 26003  82.7135 237.1827 0126419 249.7893 136.8291 12.69628470209291
Source of the keplerian elements: AFSPC